Terug naar catalogus

DELTA 1 DEB

ActiefSSO
NORAD 26836·DEBRIS·🇺🇸 United States

Gelanceerd Jun 12, 1975 vanaf Vandenberg Space Force Base

Loading…

Volgende Passages (komende 24 uur)

TLE

VersSource: Space-Track

Epoch: Sep 14, 2026, 02:26 UTC

1 26836U 75052KQ  26257.10147097 -.00000024  00000-0  37480-4 0  9998
2 26836  99.8018 307.9431 0104328  21.6746   8.9437 13.27069996619967

Volg DELTA 1 DEB in realtime met AllMySat

Download on the App Store